Indianapolis Mount Comfort, IN

2:03 PM EDT on March 27, 2017 (GMT -0400)
Mount Comfort

Weather History for KMQJ - February, 2014

Change the Weather History Date:

Saturday, February 15, 2014

  Actual Average (KEYE) Record (KEYE)
Temperature  
Mean Temperature 16 °F -  
Max Temperature 24 °F 39 °F 69 °F (2005)
Min Temperature 8 °F 24 °F 1 °F (2007)
Degree Days  
Heating Degree Days 49    
Moisture  
Dew Point 13 °F    
Average Humidity 77    
Maximum Humidity 100    
Minimum Humidity 59    
Precipitation  
Precipitation 0.00 in - - ()
Sea Level Pressure  
Sea Level Pressure 30.02 in    
Wind  
Wind Speed 8 mph (WSW)    
Max Wind Speed 13 mph    
Max Gust Speed -    
Visibility 8 miles    
Events      
Averages and records for this station are not official NWS values.
T = Trace of Precipitation, MM = Missing Value Source: NWS Daily Summary

Daily Weather History Graph

Daily Weather History Graph

Search for Another Location

Airport or City:

Trip Planner

Search our weather history database for the weather conditions in past years. The results will help you decide how hot, cold, wet, or windy it might be!

Date:

Astronomy

Feb. 15, 2014 Rise Set
Actual Time 7:36 AM EST 6:19 PM EST
Civil Twilight 7:08 AM EST 6:47 PM EST
Nautical Twilight 6:36 AM EST 7:19 PM EST
Astronomical Twilight 6:05 AM EST 7:50 PM EST
Moon 7:19 PM EST (2/15) 7:34 AM EST (2/15)
Length of Visible Light 11h 38m
Length of Day
10h 43m
Full, 100% of the Moon is Illuminated
Feb 15
Full
Feb 22
Last Quarter
Mar 1
New
Mar 8
First Quarter
Mar 16
Full

Hourly Weather History & Observations

Time (EST) Temp. Windchill Dew Point Humidity Pressure Visibility Wind Dir Wind Speed Gust Speed Precip Events Conditions
12:14 AM 15.8 °F 6.1 °F 12.2 °F 86% 29.85 in 7.0 mi NW 6.9 mph - N/A   Mostly Cloudy
12:35 AM 15.8 °F 4.2 °F 12.2 °F 86% 29.85 in 7.0 mi NW 9.2 mph - N/A   Overcast
12:54 AM 17.6 °F 6.4 °F 12.2 °F 79% 29.86 in 10.0 mi NW 9.2 mph - N/A   Mostly Cloudy
1:14 AM 17.6 °F 5.0 °F 14.0 °F 86% 29.86 in 10.0 mi NW 11.5 mph - N/A   Mostly Cloudy
1:35 AM 17.6 °F 5.7 °F 14.0 °F 86% 29.87 in 10.0 mi NW 10.4 mph - N/A   Mostly Cloudy
1:54 AM 17.6 °F 5.7 °F 14.0 °F 86% 29.87 in 10.0 mi WNW 10.4 mph - N/A   Overcast
2:14 AM 17.6 °F 5.7 °F 14.0 °F 86% 29.88 in 10.0 mi WNW 10.4 mph - N/A   Overcast
2:35 AM 17.6 °F 5.7 °F 14.0 °F 86% 29.89 in 10.0 mi WNW 10.4 mph - N/A   Overcast
2:54 AM 17.6 °F 6.4 °F 14.0 °F 86% 29.89 in 7.0 mi NW 9.2 mph - N/A   Overcast
3:14 AM 17.6 °F 6.4 °F 14.0 °F 86% 29.90 in 7.0 mi NW 9.2 mph - N/A   Overcast
3:35 AM 17.6 °F 5.7 °F 14.0 °F 86% 29.91 in 7.0 mi NW 10.4 mph - N/A   Mostly Cloudy
3:54 AM 17.6 °F 6.4 °F 14.0 °F 86% 29.92 in 7.0 mi NW 9.2 mph - N/A   Mostly Cloudy
4:14 AM 17.6 °F 6.4 °F 14.0 °F 86% 29.94 in 7.0 mi WNW 9.2 mph - N/A   Overcast
4:35 AM 17.6 °F 4.3 °F 14.0 °F 86% 29.96 in 7.0 mi NW 12.7 mph - N/A   Overcast
4:54 AM 17.6 °F 5.0 °F 12.2 °F 79% 29.97 in 7.0 mi NW 11.5 mph - N/A   Overcast
5:14 AM 15.8 °F 4.2 °F 12.2 °F 86% 29.98 in 7.0 mi NW 9.2 mph - N/A   Overcast
5:35 AM 15.8 °F 2.7 °F 12.2 °F 86% 30.00 in 7.0 mi NW 11.5 mph - N/A   Overcast
5:54 AM 15.8 °F 5.1 °F 12.2 °F 86% 30.00 in 5.0 mi NW 8.1 mph - N/A   Overcast
6:14 AM 15.8 °F 4.2 °F 12.2 °F 86% 30.01 in 5.0 mi NW 9.2 mph - N/A   Overcast
6:35 AM 14.0 °F 1.2 °F 10.4 °F 86% 30.02 in 5.0 mi WNW 10.4 mph - N/A   Overcast
6:54 AM 14.0 °F 2.0 °F 10.4 °F 86% 30.02 in 7.0 mi WNW 9.2 mph - N/A   Mostly Cloudy
7:14 AM 14.0 °F 2.9 °F 10.4 °F 86% 30.02 in 7.0 mi WNW 8.1 mph - N/A   Mostly Cloudy
7:35 AM 14.0 °F 5.1 °F 10.4 °F 86% 30.03 in 7.0 mi NW 5.8 mph - N/A   Mostly Cloudy
7:54 AM 14.0 °F 2.9 °F 10.4 °F 86% 30.04 in 5.0 mi WNW 8.1 mph - N/A   Mostly Cloudy
8:14 AM 14.0 °F 5.1 °F 8.6 °F 79% 30.05 in 7.0 mi West 5.8 mph - N/A   Mostly Cloudy
8:35 AM 10.4 °F - 6.8 °F 85% 30.05 in 5.0 mi Calm Calm - N/A   Mostly Cloudy
8:54 AM 8.6 °F 0.1 °F 5.0 °F 85% 30.06 in 4.0 mi West 4.6 mph - N/A   Mostly Cloudy
9:14 AM 8.6 °F -1.3 °F 3.2 °F 79% 30.07 in 7.0 mi West 5.8 mph - N/A   Scattered Clouds
9:35 AM 10.4 °F 0.8 °F 3.2 °F 73% 30.07 in 7.0 mi West 5.8 mph - N/A   Scattered Clouds
9:54 AM 12.2 °F 4.3 °F 5.0 °F 73% 30.07 in 10.0 mi West 4.6 mph - N/A   Scattered Clouds
10:14 AM 14.0 °F 6.5 °F 5.0 °F 67% 30.08 in 7.0 mi West 4.6 mph - N/A   Clear
10:35 AM 15.8 °F 8.6 °F 6.8 °F 68% 30.09 in 10.0 mi West 4.6 mph - N/A   Clear
10:54 AM 17.6 °F 10.7 °F 8.6 °F 68% 30.09 in 10.0 mi West 4.6 mph - N/A   Clear
11:14 AM 19.4 °F - 10.4 °F 68% 30.09 in 10.0 mi Calm Calm - N/A   Clear
11:35 AM 21.2 °F 16.4 °F 10.4 °F 63% 30.10 in 7.0 mi SSW 3.5 mph - N/A   Clear
11:54 AM 19.4 °F 14.3 °F 10.4 °F 68% 30.11 in 10.0 mi South 3.5 mph - N/A   Clear
12:15 PM 23.0 °F 15.8 °F 12.2 °F 63% 30.12 in 10.0 mi SW 5.8 mph - N/A   Clear
12:34 PM 23.0 °F 14.7 °F 12.2 °F 63% 30.11 in 10.0 mi SSW 6.9 mph - N/A   Clear
12:54 PM 24.8 °F 17.9 °F 12.2 °F 59% 30.11 in 7.0 mi SSW 5.8 mph - N/A   Clear
1:15 PM 24.8 °F 17.9 °F 14.0 °F 64% 30.10 in 10.0 mi SSW 5.8 mph - N/A   Clear
1:34 PM 24.8 °F 16.9 °F 14.0 °F 64% 30.09 in 10.0 mi SW 6.9 mph - N/A   Clear
1:55 PM 24.8 °F 15.3 °F 14.0 °F 64% 30.09 in 10.0 mi WSW 9.2 mph - N/A   Clear
2:15 PM 24.8 °F 14.6 °F 14.0 °F 64% 30.08 in 10.0 mi West 10.4 mph - N/A   Scattered Clouds
2:34 PM 24.8 °F 14.6 °F 14.0 °F 64% 30.08 in 10.0 mi West 10.4 mph - N/A   Clear
2:55 PM 24.8 °F 15.3 °F 14.0 °F 64% 30.08 in 10.0 mi West 9.2 mph - N/A   Clear
3:14 PM 24.8 °F 13.4 °F 14.0 °F 64% 30.07 in 10.0 mi West 12.7 mph - N/A   Clear
3:34 PM 23.0 °F 13.9 °F 12.2 °F 63% 30.07 in 10.0 mi WSW 8.1 mph - N/A   Clear
3:55 PM 23.0 °F 13.1 °F 12.2 °F 63% 30.08 in 10.0 mi WSW 9.2 mph - N/A   Clear
4:14 PM 23.0 °F 13.1 °F 14.0 °F 68% 30.09 in 10.0 mi WSW 9.2 mph - N/A   Clear
4:34 PM 23.0 °F 13.9 °F 14.0 °F 68% 30.09 in 10.0 mi West 8.1 mph - N/A   Clear
4:55 PM 23.0 °F 15.8 °F 14.0 °F 68% 30.08 in 10.0 mi WSW 5.8 mph - N/A   Clear
5:14 PM 21.2 °F 13.6 °F 12.2 °F 68% 30.08 in 10.0 mi WSW 5.8 mph - N/A   Clear
5:34 PM 21.2 °F 14.9 °F 12.2 °F 68% 30.07 in 10.0 mi WSW 4.6 mph - N/A   Clear
5:55 PM 21.2 °F - 12.2 °F 68% 30.07 in 10.0 mi Calm Calm - N/A   Clear
6:14 PM 21.2 °F 16.4 °F 12.2 °F 68% 30.06 in 10.0 mi SSE 3.5 mph - N/A   Clear
6:34 PM 21.2 °F 14.9 °F 14.0 °F 74% 30.05 in 10.0 mi SSE 4.6 mph - N/A   Clear
6:55 PM 21.2 °F 14.9 °F 14.0 °F 74% 30.05 in 10.0 mi South 4.6 mph - N/A   Clear
7:14 PM 19.4 °F 12.8 °F 12.2 °F 74% 30.05 in 10.0 mi South 4.6 mph - N/A   Clear
7:34 PM 19.4 °F - 14.0 °F 80% 30.05 in 10.0 mi Calm Calm - N/A   Clear
7:55 PM 19.4 °F 12.8 °F 14.0 °F 80% 30.05 in 10.0 mi South 4.6 mph - N/A   Clear
8:14 PM 21.2 °F 16.4 °F 14.0 °F 74% 30.04 in 10.0 mi South 3.5 mph - N/A   Clear
8:34 PM 19.4 °F 14.3 °F 14.0 °F 80% 30.04 in 10.0 mi South 3.5 mph - N/A   Clear
8:55 PM 19.4 °F 14.3 °F 14.0 °F 80% 30.04 in 10.0 mi South 3.5 mph - N/A   Clear
9:14 PM 21.2 °F 14.9 °F 14.0 °F 74% 30.03 in 10.0 mi South 4.6 mph - N/A   Clear
9:34 PM 21.2 °F 13.6 °F 15.8 °F 80% 30.04 in 10.0 mi South 5.8 mph - N/A   Clear
9:55 PM 21.2 °F 13.6 °F 15.8 °F 80% 30.04 in 10.0 mi South 5.8 mph - N/A   Clear
10:14 PM 21.2 °F 14.9 °F 15.8 °F 80% 30.04 in 10.0 mi South 4.6 mph - N/A   Clear
10:34 PM 21.2 °F 12.6 °F 17.6 °F 86% 30.04 in 2.5 mi SSW 6.9 mph - N/A   Mostly Cloudy
10:55 PM 21.2 °F 13.6 °F 19.4 °F 93% 30.03 in 1.2 mi South 5.8 mph - N/A   Overcast
11:14 PM 21.2 °F 13.6 °F 21.2 °F 100% 30.02 in 3.0 mi South 5.8 mph - N/A   Overcast
11:34 PM 21.2 °F 13.6 °F 21.2 °F 100% 30.01 in 2.5 mi South 5.8 mph - N/A   Overcast
11:55 PM 21.2 °F 14.9 °F 21.2 °F 100% 30.01 in 1.5 mi SSE 4.6 mph - N/A   Overcast